| time (UTC) | temp C | wind direction | speed KPH | gust KPH | rain 1hr cm | rain 24hr cm | rain mn cm | humidity % | barometer mb |
| 20260508014016 | 7 | 248 | 20.9 | 24.1 | 0.00 | 0.03 | 0.00 | 88 | 1011.4 |
| 20260508013516 | 7 | 248 | 19.3 | 24.1 | 0.00 | 0.03 | 0.00 | 87 | 1011.5 |
| 20260508013016 | 8 | 248 | 20.9 | 25.7 | 0.00 | 0.03 | 0.00 | 86 | 1011.5 |
| 20260508012516 | 8 | 248 | 20.9 | 30.6 | 0.00 | 0.03 | 0.00 | 85 | 1011.5 |
| 20260508012016 | 8 | 248 | 24.1 | 29.0 | 0.00 | 0.03 | 0.00 | 85 | 1011.5 |
| 20260508011536 | 8 | 248 | 24.1 | 32.2 | 0.00 | 0.03 | 0.00 | 85 | 1011.4 |
| 20260508011016 | 8 | 248 | 22.5 | 29.0 | 0.00 | 0.03 | 0.00 | 84 | 1011.4 |
| 20260508010516 | 8 | 248 | 20.9 | 25.7 | 0.00 | 0.03 | 0.00 | 82 | 1011.5 |
| 20260508010036 | 8 | 248 | 19.3 | 25.7 | 0.00 | 0.03 | 0.00 | 82 | 1011.5 |
| 20260508005516 | 8 | 248 | 16.1 | 24.1 | 0.00 | 0.03 | 0.00 | 82 | 1011.6 |
| 20260508005016 | 8 | 225 | 14.5 | 20.9 | 0.00 | 0.03 | 0.00 | 82 | 1011.6 |
| 20260508004516 | 8 | 225 | 14.5 | 20.9 | 0.00 | 0.03 | 0.00 | 82 | 1011.6 |
| 20260508004016 | 8 | 225 | 11.3 | 17.7 | 0.00 | 0.03 | 0.00 | 82 | 1011.6 |
| 20260508003536 | 8 | 248 | 14.5 | 22.5 | 0.00 | 0.03 | 0.00 | 82 | 1011.6 |
| 20260508003036 | 8 | 225 | 12.9 | 17.7 | 0.00 | 0.03 | 0.00 | 82 | 1011.6 |
| 20260508002516 | 8 | 225 | 16.1 | 20.9 | 0.00 | 0.03 | 0.00 | 82 | 1011.6 |
| 20260508002016 | 8 | 248 | 17.7 | 22.5 | 0.00 | 0.03 | 0.00 | 81 | 1011.5 |
| 20260508001516 | 8 | 248 | 16.1 | 22.5 | 0.00 | 0.03 | 0.00 | 82 | 1011.5 |
| 20260508001016 | 8 | 248 | 12.9 | 19.3 | 0.00 | 0.03 | 0.00 | 82 | 1011.6 |
| 20260508000516 | 8 | 248 | 9.7 | 17.7 | 0.00 | 0.03 | 0.00 | 82 | 1011.6 |
| 20260508000016 | 8 | 248 | 9.7 | 14.5 | 0.00 | 0.03 | 0.03 | 82 | 1011.5 |
| 20260507235516 | 8 | 248 | 11.3 | 16.1 | 0.00 | 0.03 | 0.03 | 82 | 1011.5 |
| 20260507235037 | 8 | 248 | 12.9 | 17.7 | 0.00 | 0.03 | 0.03 | 82 | 1011.5 |
| 20260507234536 | 8 | 248 | 11.3 | 14.5 | 0.00 | 0.03 | 0.03 | 82 | 1011.5 |
| 20260507234016 | 8 | 248 | 17.7 | 22.5 | 0.00 | 0.03 | 0.03 | 81 | 1011.5 |
| 20260507233516 | 8 | 248 | 16.1 | 22.5 | 0.00 | 0.03 | 0.03 | 82 | 1011.5 |
| 20260507233016 | 8 | 248 | 16.1 | 20.9 | 0.00 | 0.03 | 0.03 | 82 | 1011.5 |
| 20260507232516 | 8 | 248 | 17.7 | 22.5 | 0.00 | 0.03 | 0.03 | 81 | 1011.5 |
| 20260507232016 | 8 | 225 | 14.5 | 20.9 | 0.00 | 0.03 | 0.03 | 81 | 1011.5 |
| 20260507231516 | 9 | 248 | 14.5 | 22.5 | 0.00 | 0.03 | 0.03 | 81 | 1011.4 |
| 20260507231016 | 9 | 225 | 17.7 | 24.1 | 0.00 | 0.03 | 0.03 | 81 | 1011.5 |
| 20260507230517 | 9 | 248 | 14.5 | 20.9 | 0.00 | 0.03 | 0.03 | 81 | 1011.5 |
| 20260507230016 | 9 | 248 | 16.1 | 24.1 | 0.00 | 0.03 | 0.03 | 81 | 1011.5 |
| 20260507225516 | 9 | 248 | 16.1 | 29.0 | 0.00 | 0.03 | 0.03 | 81 | 1011.4 |
| 20260507225036 | 9 | 225 | 14.5 | 20.9 | 0.00 | 0.03 | 0.03 | 81 | 1011.5 |
| 20260507224537 | 9 | 248 | 14.5 | 19.3 | 0.00 | 0.03 | 0.03 | 81 | 1011.5 |
| 20260507224016 | 9 | 225 | 12.9 | 17.7 | 0.00 | 0.03 | 0.03 | 81 | 1011.5 |
| 20260507223536 | 9 | 225 | 11.3 | 16.1 | 0.00 | 0.03 | 0.03 | 81 | 1011.5 |
| 20260507223016 | 9 | 225 | 12.9 | 19.3 | 0.00 | 0.03 | 0.03 | 81 | 1011.5 |
| 20260507222516 | 9 | 225 | 11.3 | 16.1 | 0.00 | 0.03 | 0.03 | 81 | 1011.5 |
| 20260507222016 | 9 | 248 | 9.7 | 14.5 | 0.00 | 0.03 | 0.03 | 81 | 1011.4 |
| 20260507221516 | 9 | 248 | 9.7 | 12.9 | 0.00 | 0.03 | 0.03 | 81 | 1011.5 |
| 20260507221017 | 9 | 248 | 8.0 | 11.3 | 0.00 | 0.03 | 0.03 | 81 | 1011.5 |
| 20260507220516 | 9 | 248 | 9.7 | 12.9 | 0.00 | 0.03 | 0.03 | 80 | 1011.6 |
| 20260507220016 | 9 | 248 | 9.7 | 12.9 | 0.00 | 0.03 | 0.03 | 80 | 1011.5 |
| 20260507215516 | 9 | 248 | 11.3 | 12.9 | 0.00 | 0.03 | 0.03 | 79 | 1011.5 |
| 20260507215016 | 9 | 248 | 12.9 | 16.1 | 0.00 | 0.03 | 0.03 | 79 | 1011.5 |
| 20260507214536 | 9 | 248 | 12.9 | 17.7 | 0.00 | 0.03 | 0.03 | 78 | 1011.5 |
| 20260507214016 | 9 | 248 | 14.5 | 17.7 | 0.00 | 0.03 | 0.03 | 78 | 1011.5 |
| 20260507213516 | 9 | 248 | 14.5 | 17.7 | 0.00 | 0.03 | 0.03 | 77 | 1011.4 |
| 20260507213016 | 9 | 248 | 14.5 | 17.7 | 0.00 | 0.03 | 0.03 | 76 | 1011.4 |
| 20260507212536 | 9 | 248 | 9.7 | 14.5 | 0.00 | 0.03 | 0.03 | 76 | 1011.5 |
| 20260507212016 | 9 | 225 | 9.7 | 11.3 | 0.00 | 0.03 | 0.03 | 75 | 1011.4 |
| 20260507211516 | 9 | 225 | 11.3 | 14.5 | 0.00 | 0.03 | 0.03 | 74 | 1011.5 |
| 20260507211016 | 10 | 225 | 12.9 | 17.7 | 0.00 | 0.03 | 0.03 | 72 | 1011.4 |
| 20260507210516 | 10 | 203 | 14.5 | 19.3 | 0.00 | 0.03 | 0.03 | 71 | 1011.3 |
| 20260507210016 | 10 | 203 | 14.5 | 20.9 | 0.00 | 0.03 | 0.03 | 71 | 1011.4 |
| 20260507205516 | 10 | 203 | 14.5 | 19.3 | 0.00 | 0.03 | 0.03 | 71 | 1011.3 |
| 20260507205016 | 10 | 203 | 12.9 | 16.1 | 0.00 | 0.03 | 0.03 | 72 | 1011.2 |
| 20260507204516 | 10 | 203 | 12.9 | 19.3 | 0.00 | 0.03 | 0.03 | 72 | 1011.3 |
| 20260507204016 | 10 | 225 | 12.9 | 19.3 | 0.00 | 0.03 | 0.03 | 72 | 1011.4 |
| 20260507203516 | 10 | 225 | 11.3 | 16.1 | 0.00 | 0.03 | 0.03 | 71 | 1011.3 |
| 20260507203036 | 10 | 203 | 11.3 | 16.1 | 0.00 | 0.03 | 0.03 | 71 | 1011.2 |
| 20260507202536 | 10 | 203 | 11.3 | 17.7 | 0.00 | 0.03 | 0.03 | 72 | 1011.2 |
| 20260507202016 | 10 | 225 | 14.5 | 17.7 | 0.00 | 0.03 | 0.03 | 72 | 1011.1 |
| 20260507201516 | 10 | 225 | 14.5 | 19.3 | 0.00 | 0.03 | 0.03 | 72 | 1011.1 |
| 20260507201016 | 10 | 225 | 14.5 | 19.3 | 0.00 | 0.03 | 0.03 | 72 | 1011.1 |
| 20260507200516 | 10 | 225 | 14.5 | 16.1 | 0.00 | 0.03 | 0.03 | 72 | 1011.0 |
| 20260507200036 | 10 | 225 | 16.1 | 19.3 | 0.00 | 0.03 | 0.03 | 72 | 1010.9 |
| 20260507195516 | 10 | 225 | 16.1 | 19.3 | 0.00 | 0.03 | 0.03 | 70 | 1011.0 |
| 20260507195056 | 10 | 225 | 14.5 | 17.7 | 0.00 | 0.03 | 0.03 | 71 | 1011.0 |
| 20260507194516 | 10 | 248 | 12.9 | 16.1 | 0.00 | 0.03 | 0.03 | 71 | 1011.0 |
| 20260507194016 | 10 | 248 | 11.3 | 12.9 | 0.00 | 0.03 | 0.03 | 72 | 1010.9 |
| 20260507193516 | 10 | 248 | 11.3 | 17.7 | 0.00 | 0.03 | 0.03 | 72 | 1010.8 |
| 20260507193016 | 10 | 248 | 12.9 | 16.1 | 0.00 | 0.03 | 0.03 | 70 | 1010.9 |
| 20260507192516 | 10 | 248 | 14.5 | 17.7 | 0.00 | 0.03 | 0.03 | 70 | 1010.8 |
| 20260507192016 | 10 | 248 | 16.1 | 20.9 | 0.00 | 0.03 | 0.03 | 69 | 1010.7 |
| 20260507191516 | 10 | 248 | 14.5 | 19.3 | 0.00 | 0.03 | 0.03 | 69 | 1010.7 |
| 20260507191016 | 11 | 248 | 16.1 | 19.3 | 0.00 | 0.03 | 0.03 | 68 | 1010.7 |
| 20260507190516 | 11 | 248 | 20.9 | 25.7 | 0.00 | 0.03 | 0.03 | 68 | 1010.7 |
| 20260507190016 | 11 | 248 | 17.7 | 20.9 | 0.00 | 0.03 | 0.03 | 70 | 1010.7 |
| 20260507185516 | 11 | 248 | 17.7 | 25.7 | 0.00 | 0.03 | 0.03 | 70 | 1010.7 |
| 20260507185016 | 11 | 248 | 19.3 | 25.7 | 0.00 | 0.03 | 0.03 | 70 | 1010.7 |
| 20260507184516 | 11 | 248 | 17.7 | 22.5 | 0.00 | 0.03 | 0.03 | 71 | 1010.7 |
| 20260507184016 | 11 | 248 | 20.9 | 27.4 | 0.00 | 0.03 | 0.03 | 70 | 1010.7 |
| 20260507183516 | 11 | 225 | 19.3 | 25.7 | 0.00 | 0.03 | 0.03 | 70 | 1010.7 |
| 20260507183016 | 11 | 225 | 19.3 | 24.1 | 0.00 | 0.03 | 0.03 | 70 | 1010.7 |
| 20260507182516 | 11 | 225 | 17.7 | 24.1 | 0.00 | 0.03 | 0.03 | 70 | 1010.7 |
| 20260507182016 | 11 | 248 | 19.3 | 25.7 | 0.00 | 0.03 | 0.03 | 71 | 1010.7 |
| 20260507181516 | 11 | 248 | 19.3 | 29.0 | 0.00 | 0.03 | 0.03 | 72 | 1010.5 |
| 20260507181016 | 11 | 225 | 17.7 | 20.9 | 0.00 | 0.03 | 0.03 | 71 | 1010.7 |
| 20260507180516 | 11 | 225 | 19.3 | 24.1 | 0.00 | 0.03 | 0.03 | 72 | 1010.5 |
| 20260507180016 | 11 | 248 | 22.5 | 29.0 | 0.00 | 0.03 | 0.03 | 72 | 1010.5 |
| 20260507175516 | 11 | 225 | 19.3 | 29.0 | 0.00 | 0.03 | 0.03 | 72 | 1010.5 |
| 20260507175016 | 11 | 248 | 19.3 | 30.6 | 0.00 | 0.03 | 0.03 | 72 | 1010.5 |
| 20260507174516 | 11 | 225 | 22.5 | 30.6 | 0.00 | 0.03 | 0.03 | 72 | 1010.5 |
| 20260507174016 | 11 | 225 | 22.5 | 29.0 | 0.00 | 0.03 | 0.03 | 72 | 1010.5 |
| 20260507173536 | 11 | 225 | 22.5 | 27.4 | 0.00 | 0.03 | 0.03 | 72 | 1010.4 |
| 20260507173016 | 11 | 225 | 17.7 | 22.5 | 0.00 | 0.03 | 0.03 | 73 | 1010.4 |
| 20260507172516 | 11 | 225 | 19.3 | 25.7 | 0.00 | 0.03 | 0.03 | 73 | 1010.5 |
| 20260507172016 | 11 | 225 | 22.5 | 30.6 | 0.00 | 0.03 | 0.03 | 72 | 1010.5 |
| 20260507171516 | 11 | 225 | 24.1 | 32.2 | 0.00 | 0.03 | 0.03 | 72 | 1010.3 |
| 20260507171016 | 12 | 225 | 22.5 | 29.0 | 0.00 | 0.03 | 0.03 | 72 | 1010.4 |
| 20260507170516 | 12 | 225 | 20.9 | 25.7 | 0.00 | 0.03 | 0.03 | 72 | 1010.4 |
| 20260507170016 | 12 | 225 | 20.9 | 33.8 | 0.00 | 0.03 | 0.03 | 72 | 1010.5 |
| 20260507165516 | 12 | 225 | 22.5 | 29.0 | 0.00 | 0.03 | 0.03 | 74 | 1010.4 |
| 20260507165016 | 11 | 225 | 20.9 | 30.6 | 0.00 | 0.03 | 0.03 | 73 | 1010.5 |
| 20260507164516 | 11 | 225 | 19.3 | 25.7 | 0.00 | 0.03 | 0.03 | 73 | 1010.5 |
| 20260507164016 | 11 | 225 | 17.7 | 25.7 | 0.00 | 0.03 | 0.03 | 73 | 1010.5 |
| 20260507163516 | 11 | 225 | 19.3 | 25.7 | 0.00 | 0.03 | 0.03 | 75 | 1010.5 |
| 20260507163016 | 11 | 225 | 19.3 | 25.7 | 0.00 | 0.03 | 0.03 | 77 | 1010.6 |
| 20260507162516 | 11 | 225 | 14.5 | 29.0 | 0.00 | 0.03 | 0.03 | 77 | 1010.6 |
| 20260507162016 | 11 | 225 | 14.5 | 20.9 | 0.00 | 0.03 | 0.03 | 79 | 1010.7 |
| 20260507161516 | 11 | 225 | 12.9 | 19.3 | 0.00 | 0.03 | 0.03 | 79 | 1010.7 |
| 20260507161035 | 10 | 225 | 11.3 | 16.1 | 0.00 | 0.03 | 0.03 | 81 | 1010.9 |
| 20260507160515 | 10 | 225 | 9.7 | 17.7 | 0.00 | 0.03 | 0.03 | 81 | 1010.9 |
| 20260507160016 | 10 | 225 | 14.5 | 24.1 | 0.00 | 0.03 | 0.03 | 80 | 1010.9 |
| 20260507155516 | 10 | 225 | 12.9 | 17.7 | 0.00 | 0.03 | 0.03 | 81 | 1010.9 |
| 20260507155015 | 10 | 225 | 14.5 | 19.3 | 0.00 | 0.03 | 0.03 | 80 | 1010.9 |
| 20260507154516 | 10 | 225 | 14.5 | 20.9 | 0.00 | 0.03 | 0.03 | 81 | 1010.9 |
| 20260507154015 | 10 | 203 | 4.8 | 9.7 | 0.00 | 0.03 | 0.03 | 83 | 1011.0 |
| 20260507153516 | 10 | 158 | 4.8 | 6.4 | 0.00 | 0.03 | 0.03 | 83 | 1011.1 |
| 20260507153036 | 10 | 203 | 6.4 | 8.0 | 0.00 | 0.03 | 0.03 | 83 | 1011.0 |
| 20260507152516 | 10 | 203 | 8.0 | 14.5 | 0.00 | 0.03 | 0.03 | 83 | 1011.1 |
| 20260507152016 | 10 | 203 | 6.4 | 9.7 | 0.00 | 0.03 | 0.03 | 83 | 1011.1 |
| 20260507151536 | 10 | 203 | 8.0 | 14.5 | 0.00 | 0.03 | 0.03 | 83 | 1011.1 |
| 20260507151015 | 10 | 203 | 8.0 | 16.1 | 0.00 | 0.03 | 0.03 | 84 | 1011.2 |
| 20260507150515 | 10 | 225 | 11.3 | 16.1 | 0.00 | 0.03 | 0.03 | 83 | 1011.2 |
| 20260507150056 | 10 | 225 | 12.9 | 17.7 | 0.00 | 0.03 | 0.03 | 84 | 1011.2 |
| 20260507145515 | 10 | 225 | 14.5 | 20.9 | 0.00 | 0.03 | 0.03 | 84 | 1011.3 |
| 20260507145015 | 10 | 248 | 11.3 | 14.5 | 0.00 | 0.03 | 0.03 | 86 | 1011.3 |
| 20260507144515 | 10 | 248 | 12.9 | 17.7 | 0.00 | 0.03 | 0.03 | 85 | 1011.3 |
| 20260507144036 | 10 | 225 | 14.5 | 17.7 | 0.00 | 0.03 | 0.03 | 86 | 1011.4 |
| 20260507143516 | 9 | 225 | 16.1 | 20.9 | 0.03 | 0.03 | 0.03 | 85 | 1011.4 |
| 20260507143015 | 9 | 225 | 16.1 | 22.5 | 0.03 | 0.03 | 0.03 | 85 | 1011.4 |
| 20260507142515 | 9 | 225 | 16.1 | 22.5 | 0.03 | 0.03 | 0.03 | 85 | 1011.5 |
| 20260507142016 | 9 | 225 | 16.1 | 25.7 | 0.03 | 0.03 | 0.03 | 85 | 1011.5 |
| 20260507141516 | 9 | 248 | 16.1 | 20.9 | 0.03 | 0.03 | 0.03 | 85 | 1011.4 |
| 20260507141035 | 9 | 248 | 17.7 | 22.5 | 0.03 | 0.03 | 0.03 | 85 | 1011.5 |
| 20260507140516 | 8 | 248 | 19.3 | 24.1 | 0.03 | 0.03 | 0.03 | 86 | 1011.5 |
| 20260507140015 | 8 | 248 | 17.7 | 20.9 | 0.03 | 0.03 | 0.03 | 87 | 1011.5 |
| 20260507135515 | 8 | 248 | 19.3 | 29.0 | 0.03 | 0.03 | 0.03 | 86 | 1011.6 |
| 20260507135015 | 8 | 248 | 27.4 | 35.4 | 0.03 | 0.03 | 0.03 | 84 | 1011.7 |
| 20260507134515 | 9 | 248 | 32.2 | 45.1 | 0.03 | 0.03 | 0.03 | 84 | 1011.6 |
| 20260507134015 | 10 | 225 | 22.5 | 32.2 | 0.03 | 0.03 | 0.03 | 77 | 1011.6 |
| 20260507133515 | 10 | 225 | 24.1 | 37.0 | 0.00 | 0.00 | 0.00 | 75 | 1011.5 |
| 20260507133015 | 11 | 225 | 24.1 | 30.6 | 0.00 | 0.00 | 0.00 | 75 | 1011.5 |
| 20260507132535 | 11 | 225 | 22.5 | 30.6 | 0.00 | 0.00 | 0.00 | 74 | 1011.5 |
| 20260507132035 | 11 | 203 | 14.5 | 20.9 | 0.00 | 0.00 | 0.00 | 75 | 1011.5 |
| 20260507131515 | 10 | 225 | 16.1 | 27.4 | 0.00 | 0.00 | 0.00 | 75 | 1011.5 |
| 20260507131015 | 10 | 225 | 14.5 | 20.9 | 0.00 | 0.00 | 0.00 | 76 | 1011.5 |
| 20260507130515 | 10 | 225 | 17.7 | 24.1 | 0.00 | 0.00 | 0.00 | 76 | 1011.5 |
| 20260507130035 | 10 | 203 | 19.3 | 25.7 | 0.00 | 0.00 | 0.00 | 76 | 1011.6 |
| 20260507125515 | 10 | 225 | 19.3 | 30.6 | 0.00 | 0.00 | 0.00 | 76 | 1011.6 |
| 20260507125015 | 10 | 225 | 19.3 | 30.6 | 0.00 | 0.00 | 0.00 | 75 | 1011.7 |
| 20260507124515 | 10 | 225 | 19.3 | 24.1 | 0.00 | 0.00 | 0.00 | 75 | 1011.7 |
| 20260507124016 | 10 | 225 | 20.9 | 27.4 | 0.00 | 0.00 | 0.00 | 77 | 1011.7 |
| 20260507123515 | 10 | 225 | 20.9 | 29.0 | 0.00 | 0.00 | 0.00 | 77 | 1011.7 |
| 20260507123015 | 10 | 225 | 19.3 | 27.4 | 0.00 | 0.00 | 0.00 | 77 | 1011.8 |
| 20260507122515 | 10 | 225 | 17.7 | 24.1 | 0.00 | 0.00 | 0.00 | 78 | 1011.8 |
| 20260507122015 | 10 | 225 | 14.5 | 24.1 | 0.00 | 0.00 | 0.00 | 78 | 1011.9 |
| 20260507121515 | 10 | 225 | 9.7 | 16.1 | 0.00 | 0.00 | 0.00 | 79 | 1011.9 |
| 20260507121015 | 10 | 203 | 12.9 | 17.7 | 0.00 | 0.00 | 0.00 | 78 | 1011.9 |
| 20260507120535 | 10 | 203 | 12.9 | 22.5 | 0.00 | 0.00 | 0.00 | 79 | 1012.0 |
| 20260507120015 | 9 | 203 | 11.3 | 16.1 | 0.00 | 0.00 | 0.00 | 79 | 1012.0 |
| 20260507115515 | 9 | 203 | 14.5 | 22.5 | 0.00 | 0.00 | 0.00 | 78 | 1012.1 |
| 20260507115015 | 9 | 203 | 14.5 | 20.9 | 0.00 | 0.00 | 0.00 | 78 | 1012.1 |
| 20260507114515 | 9 | 203 | 14.5 | 19.3 | 0.00 | 0.00 | 0.00 | 78 | 1012.1 |
| 20260507114015 | 9 | 203 | 16.1 | 24.1 | 0.00 | 0.00 | 0.00 | 78 | 1012.2 |
| 20260507113535 | 9 | 203 | 12.9 | 20.9 | 0.00 | 0.00 | 0.00 | 78 | 1012.2 |
| 20260507113035 | 9 | 203 | 12.9 | 17.7 | 0.00 | 0.00 | 0.00 | 79 | 1012.2 |
| 20260507112515 | 9 | 203 | 16.1 | 25.7 | 0.00 | 0.00 | 0.00 | 78 | 1012.1 |
| 20260507112015 | 9 | 203 | 14.5 | 20.9 | 0.00 | 0.00 | 0.00 | 79 | 1012.2 |
| 20260507111515 | 9 | 203 | 11.3 | 17.7 | 0.00 | 0.00 | 0.00 | 79 | 1012.1 |
| 20260507111015 | 8 | 203 | 8.0 | 12.9 | 0.00 | 0.00 | 0.00 | 81 | 1012.1 |
| 20260507110555 | 8 | 225 | 4.8 | 8.0 | 0.00 | 0.00 | 0.00 | 81 | 1012.0 |
| 20260507110015 | 8 | 248 | 4.8 | 8.0 | 0.00 | 0.00 | 0.00 | 82 | 1012.1 |
| 20260507105535 | 8 | 270 | 6.4 | 8.0 | 0.00 | 0.00 | 0.00 | 81 | 1012.1 |
| 20260507105015 | 8 | 270 | 4.8 | 8.0 | 0.00 | 0.00 | 0.00 | 82 | 1012.2 |
| 20260507104535 | 8 | 248 | 8.0 | 11.3 | 0.00 | 0.00 | 0.00 | 79 | 1012.3 |
| 20260507104016 | 8 | 203 | 6.4 | 9.7 | 0.00 | 0.00 | 0.00 | 78 | 1012.3 |
| 20260507103515 | 8 | 203 | 6.4 | 16.1 | 0.00 | 0.00 | 0.00 | 77 | 1012.3 |
| 20260507103035 | 9 | 203 | 8.0 | 19.3 | 0.00 | 0.00 | 0.00 | 77 | 1012.3 |
| 20260507102515 | 8 | 203 | 9.7 | 19.3 | 0.00 | 0.00 | 0.00 | 77 | 1012.3 |
| 20260507102037 | 9 | 225 | 9.7 | 14.5 | 0.00 | 0.00 | 0.00 | 77 | 1012.3 |
| 20260507101537 | 9 | 225 | 9.7 | 12.9 | 0.00 | 0.00 | 0.00 | 76 | 1012.3 |
| 20260507101017 | 9 | 225 | 12.9 | 17.7 | 0.00 | 0.00 | 0.00 | 76 | 1012.3 |
| 20260507100517 | 9 | 203 | 9.7 | 14.5 | 0.00 | 0.00 | 0.00 | 76 | 1012.3 |
| 20260507100017 | 9 | 203 | 11.3 | 16.1 | 0.00 | 0.00 | 0.00 | 75 | 1012.2 |
| 20260507095517 | 9 | 203 | 11.3 | 16.1 | 0.00 | 0.00 | 0.00 | 77 | 1012.3 |
| 20260507095017 | 8 | 203 | 9.7 | 14.5 | 0.00 | 0.00 | 0.00 | 77 | 1012.3 |
| 20260507094537 | 8 | 203 | 12.9 | 16.1 | 0.00 | 0.00 | 0.00 | 77 | 1012.2 |
| 20260507094015 | 8 | 135 | 11.3 | 17.7 | 0.00 | 0.00 | 0.00 | 77 | 1012.1 |
| 20260507093517 | 8 | 135 | 11.3 | 17.7 | 0.00 | 0.00 | 0.00 | 77 | 1012.2 |
| 20260507093017 | 8 | 158 | 9.7 | 14.5 | 0.00 | 0.00 | 0.00 | 78 | 1012.3 |
| 20260507092517 | 8 | 158 | 8.0 | 12.9 | 0.00 | 0.00 | 0.00 | 77 | 1012.3 |
| 20260507092017 | 8 | 135 | 8.0 | 14.5 | 0.00 | 0.00 | 0.00 | 77 | 1012.3 |
| 20260507091517 | 8 | 203 | 6.4 | 11.3 | 0.00 | 0.00 | 0.00 | 77 | 1012.3 |
| 20260507091017 | 8 | 158 | 8.0 | 11.3 | 0.00 | 0.00 | 0.00 | 78 | 1012.3 |
| 20260507090517 | 8 | 135 | 9.7 | 14.5 | 0.00 | 0.00 | 0.00 | 78 | 1012.4 |
| 20260507090017 | 8 | 135 | 6.4 | 11.3 | 0.00 | 0.00 | 0.00 | 78 | 1012.3 |
| 20260507085517 | 8 | 158 | 3.2 | 6.4 | 0.00 | 0.00 | 0.00 | 78 | 1012.4 |
| 20260507085017 | 7 | 203 | 4.8 | 8.0 | 0.00 | 0.00 | 0.00 | 79 | 1012.4 |
| 20260507084517 | 7 | 90 | 3.2 | 8.0 | 0.00 | 0.00 | 0.00 | 78 | 1012.4 |
| 20260507084017 | 7 | 135 | 3.2 | 6.4 | 0.00 | 0.00 | 0.00 | 78 | 1012.4 |
| 20260507083517 | 7 | 135 | 1.6 | 4.8 | 0.00 | 0.00 | 0.00 | 78 | 1012.4 |
| 20260507083037 | 7 | 90 | 3.2 | 8.0 | 0.00 | 0.00 | 0.00 | 78 | 1012.4 |
| 20260507082537 | 7 | 90 | 4.8 | 11.3 | 0.00 | 0.00 | 0.00 | 77 | 1012.5 |
| 20260507082017 | 7 | 68 | 3.2 | 4.8 | 0.00 | 0.00 | 0.00 | 77 | 1012.5 |
| 20260507081517 | 7 | 68 | 1.6 | 6.4 | 0.00 | 0.00 | 0.00 | 78 | 1012.5 |
| 20260507081017 | 7 | 68 | 3.2 | 8.0 | 0.00 | 0.00 | 0.00 | 78 | 1012.5 |
| 20260507080517 | 7 | 90 | 3.2 | 6.4 | 0.00 | 0.00 | 0.00 | 80 | 1012.5 |
| 20260507080037 | 7 | 45 | 3.2 | 8.0 | 0.00 | 0.00 | 0.00 | 79 | 1012.5 |
| 20260507075517 | 7 | 68 | 4.8 | 8.0 | 0.00 | 0.00 | 0.00 | 80 | 1012.5 |
| 20260507075017 | 7 | 68 | 6.4 | 9.7 | 0.00 | 0.00 | 0.00 | 79 | 1012.6 |
| 20260507074517 | 7 | 45 | 3.2 | 6.4 | 0.00 | 0.00 | 0.00 | 79 | 1012.6 |
| 20260507074017 | 6 | 90 | 3.2 | 8.0 | 0.00 | 0.00 | 0.00 | 80 | 1012.7 |
| 20260507073516 | 6 | 68 | 3.2 | 8.0 | 0.00 | 0.00 | 0.00 | 80 | 1012.7 |
| 20260507073017 | 6 | 68 | 4.8 | 8.0 | 0.00 | 0.00 | 0.00 | 80 | 1012.7 |
| 20260507072517 | 6 | 68 | 3.2 | 8.0 | 0.00 | 0.00 | 0.00 | 81 | 1012.7 |
| 20260507072017 | 6 | 45 | 4.8 | 6.4 | 0.00 | 0.00 | 0.00 | 80 | 1012.7 |
| 20260507071517 | 6 | 68 | 4.8 | 9.7 | 0.00 | 0.00 | 0.00 | 80 | 1012.6 |
| 20260507071017 | 6 | 68 | 4.8 | 9.7 | 0.00 | 0.00 | 0.00 | 81 | 1012.7 |
| 20260507070537 | 6 | 68 | 6.4 | 9.7 | 0.00 | 0.00 | 0.00 | 81 | 1012.6 |
| 20260507070037 | 6 | 45 | 8.0 | 11.3 | 0.00 | 0.00 | 0.00 | 81 | 1012.6 |
| 20260507065517 | 6 | 45 | 8.0 | 11.3 | 0.00 | 0.00 | 0.00 | 82 | 1012.6 |
| 20260507065017 | 6 | 45 | 8.0 | 9.7 | 0.00 | 0.00 | 0.00 | 82 | 1012.7 |
| 20260507064516 | 5 | 45 | 9.7 | 11.3 | 0.00 | 0.00 | 0.00 | 83 | 1012.7 |
| 20260507064016 | 5 | 45 | 8.0 | 11.3 | 0.00 | 0.00 | 0.00 | 83 | 1012.8 |
| 20260507063516 | 5 | 45 | 8.0 | 11.3 | 0.00 | 0.00 | 0.00 | 83 | 1012.8 |
| 20260507063036 | 5 | 45 | 8.0 | 11.3 | 0.00 | 0.00 | 0.00 | 83 | 1012.8 |
| 20260507062517 | 5 | 45 | 4.8 | 8.0 | 0.00 | 0.00 | 0.00 | 84 | 1012.8 |
| 20260507062017 | 5 | 45 | 6.4 | 8.0 | 0.00 | 0.00 | 0.00 | 84 | 1012.8 |
| 20260507061516 | 5 | 45 | 6.4 | 8.0 | 0.00 | 0.00 | 0.00 | 84 | 1012.8 |
| 20260507061016 | 5 | 45 | 4.8 | 8.0 | 0.00 | 0.00 | 0.00 | 84 | 1012.9 |
| 20260507060516 | 5 | 45 | 4.8 | 6.4 | 0.00 | 0.00 | 0.00 | 84 | 1012.9 |
| 20260507060016 | 5 | 45 | 6.4 | 8.0 | 0.00 | 0.00 | 0.00 | 84 | 1012.8 |
| 20260507055517 | 5 | 45 | 4.8 | 6.4 | 0.00 | 0.00 | 0.00 | 84 | 1012.9 |
| 20260507055017 | 5 | 45 | 4.8 | 6.4 | 0.00 | 0.00 | 0.00 | 84 | 1012.9 |
| 20260507054536 | 5 | 45 | 4.8 | 4.8 | 0.00 | 0.00 | 0.00 | 84 | 1012.9 |
| 20260507054036 | 5 | 45 | 3.2 | 4.8 | 0.00 | 0.00 | 0.00 | 84 | 1012.9 |
| 20260507053516 | 5 | 45 | 3.2 | 6.4 | 0.00 | 0.00 | 0.00 | 84 | 1012.9 |
| 20260507053036 | 5 | 45 | 6.4 | 6.4 | 0.00 | 0.00 | 0.00 | 84 | 1012.9 |
| 20260507052557 | 5 | 45 | 6.4 | 8.0 | 0.00 | 0.00 | 0.00 | 84 | 1012.9 |
| 20260507052017 | 5 | 45 | 6.4 | 8.0 | 0.00 | 0.00 | 0.00 | 84 | 1012.9 |
| 20260507051517 | 5 | 45 | 6.4 | 9.7 | 0.00 | 0.00 | 0.00 | 83 | 1012.9 |
| 20260507051016 | 5 | 45 | 6.4 | 8.0 | 0.00 | 0.00 | 0.00 | 83 | 1013.0 |
| 20260507050516 | 5 | 45 | 6.4 | 8.0 | 0.00 | 0.00 | 0.00 | 83 | 1013.0 |
| 20260507050036 | 5 | 45 | 6.4 | 8.0 | 0.00 | 0.00 | 0.00 | 83 | 1013.1 |
| 20260507045516 | 5 | 45 | 6.4 | 8.0 | 0.00 | 0.00 | 0.00 | 83 | 1013.0 |
| 20260507045016 | 5 | 45 | 6.4 | 9.7 | 0.00 | 0.00 | 0.00 | 82 | 1013.1 |
| 20260507044516 | 5 | 45 | 8.0 | 9.7 | 0.00 | 0.00 | 0.00 | 82 | 1013.0 |
| 20260507044017 | 5 | 45 | 6.4 | 8.0 | 0.00 | 0.00 | 0.00 | 82 | 1013.0 |
| 20260507043536 | 5 | 45 | 6.4 | 8.0 | 0.00 | 0.00 | 0.00 | 82 | 1012.9 |
| 20260507043016 | 5 | 45 | 6.4 | 8.0 | 0.00 | 0.00 | 0.00 | 82 | 1013.0 |
| 20260507042536 | 5 | 23 | 6.4 | 8.0 | 0.00 | 0.00 | 0.00 | 82 | 1012.9 |
| 20260507042056 | 5 | 45 | 4.8 | 6.4 | 0.00 | 0.00 | 0.00 | 82 | 1013.0 |
| 20260507041516 | 5 | 45 | 4.8 | 6.4 | 0.00 | 0.00 | 0.00 | 82 | 1013.0 |
| 20260507041016 | 5 | 45 | 4.8 | 6.4 | 0.00 | 0.00 | 0.00 | 82 | 1013.0 |
| 20260507040516 | 5 | 45 | 3.2 | 4.8 | 0.00 | 0.00 | 0.00 | 82 | 1013.0 |
| 20260507040016 | 5 | 45 | 1.6 | 3.2 | 0.00 | 0.00 | 0.00 | 82 | 1013.0 |
| 20260507035516 | 5 | 45 | 3.2 | 4.8 | 0.00 | 0.00 | 0.00 | 82 | 1013.0 |
| 20260507035016 | 5 | 45 | 4.8 | 4.8 | 0.00 | 0.00 | 0.00 | 82 | 1013.0 |
| 20260507034516 | 5 | 45 | 4.8 | 4.8 | 0.00 | 0.00 | 0.00 | 82 | 1013.0 |
| 20260507034016 | 5 | 45 | 4.8 | 6.4 | 0.00 | 0.00 | 0.00 | 83 | 1013.1 |
| 20260507033516 | 5 | 45 | 4.8 | 8.0 | 0.00 | 0.00 | 0.00 | 83 | 1013.2 |
| 20260507033016 | 5 | 45 | 6.4 | 8.0 | 0.00 | 0.00 | 0.00 | 83 | 1013.2 |
| 20260507032516 | 5 | 45 | 4.8 | 6.4 | 0.00 | 0.00 | 0.00 | 83 | 1013.2 |
| 20260507032016 | 5 | 45 | 6.4 | 8.0 | 0.00 | 0.00 | 0.00 | 83 | 1013.2 |
| 20260507031516 | 5 | 23 | 6.4 | 8.0 | 0.00 | 0.00 | 0.00 | 83 | 1013.2 |
| 20260507031016 | 5 | 45 | 6.4 | 9.7 | 0.00 | 0.00 | 0.00 | 82 | 1013.2 |
| 20260507030516 | 5 | 23 | 6.4 | 8.0 | 0.00 | 0.00 | 0.00 | 83 | 1013.3 |
| 20260507030016 | 5 | 45 | 4.8 | 6.4 | 0.00 | 0.00 | 0.00 | 83 | 1013.2 |
| 20260507025536 | 5 | 45 | 4.8 | 6.4 | 0.00 | 0.00 | 0.00 | 83 | 1013.2 |
| 20260507025016 | 5 | 23 | 4.8 | 4.8 | 0.00 | 0.00 | 0.00 | 83 | 1013.2 |
| 20260507024516 | 5 | 45 | 4.8 | 4.8 | 0.00 | 0.00 | 0.00 | 83 | 1013.2 |
| 20260507024016 | 5 | 45 | 3.2 | 4.8 | 0.00 | 0.00 | 0.00 | 83 | 1013.2 |
| 20260507023536 | 5 | 0.0 | 1.6 | 0.00 | 0.00 | 0.00 | 82 | 1013.3 | |
| 20260507023016 | 5 | 45 | 1.6 | 3.2 | 0.00 | 0.00 | 0.00 | 81 | 1013.3 |
| 20260507022516 | 5 | 45 | 1.6 | 4.8 | 0.00 | 0.00 | 0.00 | 81 | 1013.3 |
| 20260507022016 | 5 | 45 | 1.6 | 3.2 | 0.00 | 0.00 | 0.00 | 81 | 1013.3 |
| 20260507021556 | 5 | 68 | 1.6 | 4.8 | 0.00 | 0.00 | 0.00 | 81 | 1013.3 |
| 20260507021016 | 5 | 45 | 3.2 | 4.8 | 0.00 | 0.00 | 0.00 | 82 | 1013.3 |
| 20260507020516 | 5 | 45 | 3.2 | 6.4 | 0.00 | 0.00 | 0.00 | 82 | 1013.3 |
| 20260507020016 | 5 | 0.0 | 4.8 | 0.00 | 0.00 | 0.00 | 83 | 1013.3 | |
| 20260507015516 | 5 | 45 | 3.2 | 4.8 | 0.00 | 0.00 | 0.00 | 83 | 1013.2 |
| 20260507015016 | 5 | 23 | 1.6 | 4.8 | 0.00 | 0.00 | 0.00 | 83 | 1013.2 |
| 20260507014516 | 5 | 45 | 4.8 | 4.8 | 0.00 | 0.00 | 0.00 | 83 | 1013.2 |